Weather History for KMCJ - May, 2013

Change the Weather History Date:

Thursday, May 16, 2013

  Actual Average (KHOU) Record (KHOU)
Temperature  
Mean Temperature 76 °F 77 °F  
Max Temperature 84 °F 86 °F 93 °F (2003)
Min Temperature 68 °F 68 °F 47 °F (1973)
Cooling Degree Days 11 12  
Month to date cooling degree days 164  
Year to date cooling degree days 445  
Growing Degree Days 26 (Base 50)    
Moisture  
Dew Point 69 °F    
Average Humidity 80    
Maximum Humidity 100    
Minimum Humidity 58    
Precipitation  
Precipitation 0.00 in 0.17 in 2.80 in (1992)
Month to date precipitation 2.64  
Year to date precipitation 15.94  
Sea Level Pressure  
Sea Level Pressure 29.85 in    
Wind  
Wind Speed - (North)    
Max Wind Speed -    
Max Gust Speed -    
Visibility 6 miles    
Events      
T = Trace of Precipitation, MM = Missing Value Source: NWS Daily Summary

Daily Weather History Graph

Daily Weather History Graph

Search for Another Location

Airport or City:

Trip Planner

Search our weather history database for the weather conditions in past years. The results will help you decide how hot, cold, wet, or windy it might be!

Date:

Astronomy

May. 16, 2013 Rise Set
Actual Time 6:27 AM CDT 8:08 PM CDT
Civil Twilight 6:01 AM CDT 8:34 PM CDT
Nautical Twilight 5:30 AM CDT 9:05 PM CDT
Astronomical Twilight 4:57 AM CDT 9:39 PM CDT
Moon 11:54 AM CDT (5/16) 12:36 AM CDT (5/16)
Length of Visible Light 14h 32m
Length of Day
13h 40m
Waxing Crescent, 36% of the Moon is Illuminated
May 16
Waxing Crescent
May 17
First Quarter
May 24
Full
May 31
Last Quarter
Jun 8
New

Hourly Weather History & Observations

Time (CDT) Temp. Heat Index Dew Point Humidity Pressure Visibility Wind Dir Wind Speed Gust Speed Precip Events Conditions
12:15 AM 71.6 °F - 68.0 °F 88% 29.88 in 8.0 mi North - - N/A   Mostly Cloudy
12:35 AM 71.6 °F - 68.0 °F 88% 29.89 in 8.0 mi North - - N/A   Mostly Cloudy
12:55 AM 71.6 °F - 68.0 °F 88% 29.89 in 8.0 mi North - - N/A   Mostly Cloudy
1:15 AM 71.6 °F - 68.0 °F 88% 29.90 in 8.0 mi North - - N/A   Mostly Cloudy
1:35 AM 71.6 °F - 68.0 °F 88% 29.89 in 8.0 mi North - - N/A   Overcast
1:55 AM 71.6 °F - 68.0 °F 88% 29.88 in 7.0 mi North - - N/A   Mostly Cloudy
2:15 AM 71.6 °F - 68.0 °F 88% 29.88 in 7.0 mi North - - N/A   Scattered Clouds
2:35 AM 71.6 °F - 68.0 °F 88% 29.88 in 7.0 mi North - - N/A   Mostly Cloudy
2:55 AM 71.6 °F - 68.0 °F 88% 29.88 in 6.0 mi North - - N/A   Mostly Cloudy
3:15 AM 71.6 °F - 68.0 °F 88% 29.88 in 7.0 mi North - - N/A   Overcast
3:35 AM 71.6 °F - 68.0 °F 88% 29.86 in 7.0 mi North - - N/A   Overcast
3:55 AM 71.6 °F - 68.0 °F 88% 29.86 in 7.0 mi North - - N/A   Overcast
4:15 AM 71.6 °F - 68.0 °F 88% 29.89 in 7.0 mi North - - N/A   Overcast
4:35 AM 71.6 °F - 68.0 °F 88% 29.92 in 6.0 mi North - - N/A   Overcast
4:55 AM 71.6 °F - 68.0 °F 88% 29.93 in 7.0 mi North - - N/A   Overcast
5:15 AM 71.6 °F - 68.0 °F 88% 29.93 in 7.0 mi North - - N/A   Overcast
5:35 AM 71.6 °F - 66.2 °F 83% 29.93 in 6.0 mi North - - N/A   Overcast
5:55 AM 71.6 °F - 66.2 °F 83% 29.92 in 3.0 mi North - - N/A   Overcast
6:15 AM 69.8 °F - 68.0 °F 94% 29.93 in 5.0 mi North - - N/A   Overcast
6:35 AM 69.8 °F - 68.0 °F 94% 29.94 in 5.0 mi North - - N/A   Overcast
6:55 AM 68.0 °F - 68.0 °F 100% 29.93 in 1.5 mi North - - N/A   Overcast
7:15 AM 68.0 °F - 68.0 °F 100% 29.92 in 3.0 mi North - - N/A   Mostly Cloudy
7:35 AM 68.0 °F - 68.0 °F 100% 29.92 in 3.0 mi North - - N/A   Mostly Cloudy
7:55 AM 69.8 °F - 68.0 °F 94% 29.91 in 3.0 mi North - - N/A   Mostly Cloudy
8:15 AM 71.6 °F - 68.0 °F 88% 29.90 in 4.0 mi North - - N/A   Clear
8:35 AM 73.4 °F - 68.0 °F 83% 29.88 in 5.0 mi North - - N/A   Clear
8:55 AM 75.2 °F - 68.0 °F 78% 29.88 in 5.0 mi North - - N/A   Partly Cloudy
9:15 AM 75.2 °F - 68.0 °F 78% 29.88 in 6.0 mi North - - N/A   Scattered Clouds
9:35 AM 75.2 °F - 66.2 °F 73% 29.88 in 7.0 mi North - - N/A   Mostly Cloudy
9:55 AM 77.0 °F - 66.2 °F 69% 29.87 in 7.0 mi North - - N/A   Mostly Cloudy
10:15 AM 77.0 °F - 66.2 °F 69% 29.87 in 7.0 mi North - - N/A   Mostly Cloudy
10:35 AM 77.0 °F - 66.2 °F 69% 29.86 in 8.0 mi North - - N/A   Mostly Cloudy
10:55 AM 78.8 °F - 66.2 °F 65% 29.87 in 7.0 mi North - - N/A   Mostly Cloudy
11:15 AM 78.8 °F - 66.2 °F 65% 29.86 in 7.0 mi North - - N/A   Mostly Cloudy
11:35 AM 80.6 °F 82.7 °F 66.2 °F 61% 29.86 in 8.0 mi North - - N/A   Mostly Cloudy
11:55 AM 80.6 °F 82.7 °F 66.2 °F 61% 29.85 in 8.0 mi North - - N/A   Mostly Cloudy
12:15 PM 80.6 °F 82.7 °F 66.2 °F 61% 29.84 in 8.0 mi North - - N/A   Mostly Cloudy
12:35 PM 82.4 °F 84.6 °F 66.2 °F 58% 29.84 in 8.0 mi North - - N/A   Mostly Cloudy
12:55 PM 82.4 °F 84.6 °F 66.2 °F 58% 29.83 in 8.0 mi North - - N/A   Mostly Cloudy
1:15 PM 82.4 °F 85.4 °F 68.0 °F 62% 29.83 in 8.0 mi North - - N/A   Mostly Cloudy
1:35 PM 84.2 °F 87.3 °F 68.0 °F 58% 29.83 in 9.0 mi North - - N/A   Mostly Cloudy
1:55 PM 82.4 °F 85.4 °F 68.0 °F 62% 29.83 in 8.0 mi North - - N/A   Mostly Cloudy
2:15 PM 82.4 °F 85.4 °F 68.0 °F 62% 29.83 in 8.0 mi North - - N/A   Mostly Cloudy
2:35 PM 82.4 °F 85.4 °F 68.0 °F 62% 29.82 in 7.0 mi North - - N/A   Mostly Cloudy
2:55 PM 82.4 °F 85.4 °F 68.0 °F 62% 29.82 in 8.0 mi North - - N/A   Overcast
3:15 PM 80.6 °F 83.2 °F 68.0 °F 65% 29.83 in 8.0 mi North - - N/A   Overcast
3:35 PM 80.6 °F 83.9 °F 69.8 °F 70% 29.82 in 7.0 mi North - - N/A   Overcast
3:55 PM 80.6 °F 83.9 °F 69.8 °F 70% 29.80 in 7.0 mi North - - N/A   Mostly Cloudy
4:15 PM 80.6 °F 83.9 °F 69.8 °F 70% 29.80 in 7.0 mi North - - N/A   Mostly Cloudy
4:35 PM 80.6 °F 83.9 °F 69.8 °F 70% 29.81 in 6.0 mi North - - N/A   Overcast
4:55 PM 78.8 °F - 69.8 °F 74% 29.80 in 6.0 mi North - - N/A   Overcast
5:15 PM 77.0 °F - 69.8 °F 78% 29.80 in 5.0 mi North - - N/A   Overcast
5:35 PM 77.0 °F - 69.8 °F 78% 29.79 in 5.0 mi North - - N/A   Overcast
5:55 PM 77.0 °F - 69.8 °F 78% 29.79 in 5.0 mi North - - N/A   Overcast
6:15 PM 77.0 °F - 69.8 °F 78% 29.79 in 5.0 mi North - - N/A   Overcast
6:35 PM 77.0 °F - 69.8 °F 78% 29.80 in 5.0 mi North - - N/A   Overcast
6:55 PM 77.0 °F - 69.8 °F 78% 29.80 in 5.0 mi North - - N/A   Overcast
7:15 PM 75.2 °F - 71.6 °F 89% 29.81 in 5.0 mi North - - N/A   Overcast
7:35 PM 75.2 °F - 71.6 °F 89% 29.81 in 5.0 mi North - - N/A   Overcast
7:55 PM 75.2 °F - 71.6 °F 89% 29.80 in 4.0 mi North - - N/A   Overcast
8:15 PM 75.2 °F - 71.6 °F 89% 29.81 in 5.0 mi North - - N/A   Overcast
8:35 PM 75.2 °F - 71.6 °F 89% 29.82 in 5.0 mi North - - N/A   Overcast
8:55 PM 75.2 °F - 71.6 °F 89% 29.82 in 5.0 mi North - - N/A   Overcast
9:15 PM 75.2 °F - 71.6 °F 89% 29.82 in 5.0 mi North - - N/A   Overcast
9:35 PM 75.2 °F - 71.6 °F 89% 29.83 in 5.0 mi North - - N/A   Overcast
9:55 PM 75.2 °F - 71.6 °F 89% 29.83 in 5.0 mi North - - N/A   Overcast
10:15 PM 75.2 °F - 71.6 °F 89% 29.83 in 5.0 mi North - - N/A   Overcast
10:35 PM 75.2 °F - 71.6 °F 89% 29.84 in 5.0 mi North - - N/A   Overcast
10:55 PM 75.2 °F - 71.6 °F 89% 29.83 in 5.0 mi North - - N/A   Overcast
11:15 PM 75.2 °F - 71.6 °F 89% 29.83 in 5.0 mi North - - N/A   Overcast
11:35 PM 75.2 °F - 71.6 °F 89% 29.83 in 5.0 mi North - - N/A   Overcast
11:55 PM 75.2 °F - 71.6 °F 89% 29.83 in 5.0 mi North - - N/A   Overcast